Torna al catalogo

FENGYUN 1C DEB

AttivoSSO
NORAD 30355·DEBRIS·🇨🇳 China

Lanciato May 10, 1999 da Taiyuan Satellite Launch Center

Loading…

Prossimi Passaggi (prossime 24 ore)

TLE

AggiornatoSource: Space-Track

Epoca: Sep 13, 2026, 12:46 UTC

1 30355U 99025ABS 26256.53243222  .00000783  00000-0  38681-3 0  9992
2 30355  98.5937 257.5545 0052090 234.9807 251.4320 14.19489799 12361

Traccia FENGYUN 1C DEB in tempo reale con AllMySat

Download on the App Store